Stations météo

réclame
Mon MeteoGroup
Goteborg/Landvetter, Suède (2526): Température de l'air & dewpoint: 13.09.2019 06:00:00 - 19.09.2019 06:00:00 (CEST)Goteborg/Landvetter, Suède (2526): Vitesse du vent: 13.09.2019 06:00:00 - 19.09.2019 06:00:00 (CEST)Goteborg/Landvetter, Suède (2526): Direction du vent: 13.09.2019 06:00:00 - 19.09.2019 06:00:00 (CEST)Goteborg/Landvetter, Suède (2526): reduced air pressure: 13.09.2019 06:00:00 - 19.09.2019 06:00:00 (CEST)Goteborg/Landvetter, Suède (2526): visibility: 13.09.2019 06:00:00 - 19.09.2019 06:00:00 (CEST)
Date & Time tt [°C] td [°C] ff [km/h] ff [knt] dd ppp [hPa] vv [km]
19.09.2019 06:00:00 5,0 0,8 11 6 NNW 1023,3 50
19.09.2019 05:00:00 5,5 0,9 11 6 N 1022,9 50
19.09.2019 04:00:00 5,4 1,5 7 4 N 1022,3 50
19.09.2019 03:00:00 6,3 3,3 7 4 N 1022,0 50
19.09.2019 02:00:00 7,4 4,2 11 6 NNW 1021,5 50
19.09.2019 01:00:00 7,1 4,1 11 6 WNW 1021,1 50
19.09.2019 00:00:00 7,1 3,7 7 4 WNW 1020,7 50
18.09.2019 23:00:00 7,3 3,3 7 4 WNW 1020,4 50
18.09.2019 22:00:00 7,5 3,0 7 4 WNW 1020,0 50
18.09.2019 21:00:00 8,4 3,2 7 4 WNW 1019,5 50
18.09.2019 20:00:00 8,8 3,4 7 4 WNW 1019,0 50
18.09.2019 19:00:00 10,6 3,4 11 6 WNW 1018,3 50
18.09.2019 18:00:00 12,0 3,7 14 8 NW 1017,7 50
18.09.2019 17:00:00 12,8 3,2 18 10 NW 1017,3 50
18.09.2019 16:00:00 12,6 3,3 18 10 W 1017,2 45
18.09.2019 15:00:00 13,6 3,4 18 10 WNW 1016,8 45
18.09.2019 14:00:00 13,2 2,1 18 10 NW 1016,5 40
18.09.2019 13:00:00 12,8 2,9 14 8 NW 1016,4 30
18.09.2019 12:00:00 12,3 3,3 14 8 NW 1016,1 24
18.09.2019 11:00:00 10,8 2,9 14 8 NW 1016,0 50
18.09.2019 10:00:00 9,6 2,7 14 8 NNW 1015,8 50
18.09.2019 09:00:00 8,0 2,2 11 6 NNW 1015,3 50
18.09.2019 08:00:00 6,2 1,7 7 4 NNW 1014,7 45
18.09.2019 07:00:00 4,7 1,4 7 4 NNW 1014,2 50
18.09.2019 06:00:00 5,0 1,5 7 4 NW 1013,8 50
18.09.2019 05:00:00 5,0 1,3 11 6 WNW 1013,2 50
18.09.2019 04:00:00 5,4 0,9 7 4 WNW 1012,8 50
18.09.2019 03:00:00 5,6 1,1 11 6 NW 1012,4 50
18.09.2019 02:00:00 6,0 1,1 11 6 WNW 1012,1 50
18.09.2019 01:00:00 6,5 1,0 11 6 WNW 1011,7 50
18.09.2019 00:00:00 5,9 0,8 7 4 W 1011,1 50
17.09.2019 23:00:00 6,0 1,1 11 6 WNW 1010,8 50
17.09.2019 22:00:00 6,3 1,4 11 6 WNW 1010,1 50
17.09.2019 21:00:00 6,3 2,6 7 4 WNW 1009,3 50
17.09.2019 20:00:00 6,8 3,9 11 6 NNW 1008,3 50
17.09.2019 19:00:00 6,8 4,5 14 8 N 1007,3 50
17.09.2019 18:00:00 9,5 3,0 22 12 NNW 1005,7 45
17.09.2019 17:00:00 8,2 2,4 22 12 N 1004,8 50
17.09.2019 16:00:00 9,6 0,5 32 18 N 1003,4 50
17.09.2019 15:00:00 12,0 2,2 22 12 NW 1002,0 45
17.09.2019 14:00:00 11,7 1,9 25 14 WNW 1001,9 45
17.09.2019 13:00:00 10,8 1,3 25 14 W 1001,5 26
17.09.2019 12:00:00 11,0 2,3 22 12 NW 1001,4 50
17.09.2019 11:00:00 9,4 2,5 18 10 NW 1001,7 50
17.09.2019 10:00:00 9,4 2,3 22 12 WNW 1002,0 40
17.09.2019 09:00:00 9,5 2,6 22 12 WNW 1001,9 40
17.09.2019 08:00:00 8,5 2,3 18 10 WNW 1002,4 45
17.09.2019 07:00:00 8,3 2,9 18 10 WNW 1002,6 50
17.09.2019 06:00:00 8,3 4,1 14 8 W 1002,9 50
17.09.2019 05:00:00 8,5 5,1 14 8 W 1003,4 7
17.09.2019 04:00:00 9,3 5,1 14 8 W 1004,1 50
17.09.2019 03:00:00 9,3 6,2 14 8 W 1004,9 40
17.09.2019 02:00:00 8,9 6,5 14 8 WSW 1006,0 45
17.09.2019 01:00:00 8,5 6,6 11 6 WSW 1006,8 50
17.09.2019 00:00:00 9,7 7,3 11 6 WSW 1007,2 40
16.09.2019 23:00:00 9,8 6,9 14 8 W 1007,8 45
16.09.2019 22:00:00 10,4 6,7 22 12 WSW 1008,4 50
16.09.2019 21:00:00 10,6 6,2 14 8 W 1008,8 45
16.09.2019 20:00:00 10,7 6,3 18 10 W 1009,0 40
16.09.2019 19:00:00 11,2 6,1 18 10 W 1008,9 40
16.09.2019 18:00:00 12,3 5,0 25 14 W 1009,1 40
16.09.2019 17:00:00 12,1 4,3 25 14 W 1009,3 50
16.09.2019 16:00:00 12,0 4,7 25 14 W 1009,5 50
16.09.2019 15:00:00 12,4 5,1 25 14 W 1009,4 50
16.09.2019 14:00:00 12,5 4,9 29 16 W 1009,1 40
16.09.2019 13:00:00 12,4 4,6 25 14 W 1009,2 45
16.09.2019 12:00:00 12,1 4,3 29 16 W 1009,1 35
16.09.2019 11:00:00 11,8 4,3 25 14 WNW 1008,9 45
16.09.2019 10:00:00 11,1 3,9 22 12 WNW 1008,9 45
16.09.2019 09:00:00 11,0 4,5 22 12 W 1008,6 30
16.09.2019 08:00:00 10,3 4,9 18 10 W 1008,5 50
16.09.2019 07:00:00 10,0 4,8 22 12 W 1008,3 40
16.09.2019 06:00:00 10,1 4,7 25 14 W 1008,0 45
16.09.2019 05:00:00 10,2 5,0 18 10 W 1008,3 35
16.09.2019 04:00:00 10,5 4,8 22 12 W 1007,8 45
16.09.2019 03:00:00 10,5 5,5 18 10 W 1007,1 30
16.09.2019 02:00:00 10,7 5,5 29 16 W 1006,5 35
16.09.2019 01:00:00 11,0 5,7 25 14 W 1006,6 40
16.09.2019 00:00:00 11,1 6,2 32 18 W 1005,8 26
15.09.2019 23:00:00 11,2 6,5 36 19 W 1005,2 25
15.09.2019 22:00:00 11,6 7,1 32 18 W 1005,1 14
15.09.2019 21:00:00 11,8 7,1 36 19 W 1005,0 16
15.09.2019 20:00:00 11,8 7,1 29 16 W 1005,0 15
15.09.2019 19:00:00 12,0 7,1 40 21 W 1004,8 14
15.09.2019 18:00:00 12,2 7,1 36 19 W 1005,1 16
15.09.2019 17:00:00 12,3 6,3 43 23 WSW 1005,5 16
15.09.2019 16:00:00 12,2 6,7 32 18 W 1005,8 13
15.09.2019 15:00:00 12,2 5,6 43 23 W 1006,2 21
15.09.2019 14:00:00 12,5 5,9 32 18 W 1006,5 15
15.09.2019 13:00:00 12,4 5,8 40 21 W 1006,2 16
15.09.2019 12:00:00 12,6 6,0 36 19 W 1006,0 29
15.09.2019 11:00:00 12,1 9,1 29 16 W 1006,0 20
15.09.2019 10:00:00 11,8 8,1 25 14 W 1006,0 23
15.09.2019 09:00:00 11,5 9,2 25 14 WSW 1005,8 22
15.09.2019 08:00:00 12,1 11,2 25 14 W 1005,4 7
15.09.2019 07:00:00 12,5 11,7 32 18 WSW 1005,7 7
15.09.2019 06:00:00 12,3 11,2 43 23 SW 1006,6 5
15.09.2019 05:00:00 12,1 10,8 40 21 SW 1008,2 6
15.09.2019 04:00:00 12,3 10,2 36 19 SW 1010,3 16
15.09.2019 03:00:00 11,9 10,1 32 18 SW 1012,0 19
15.09.2019 02:00:00 11,1 10,0 29 16 SSW 1013,7 23
15.09.2019 01:00:00 10,5 9,4 36 19 SW 1015,4 6
15.09.2019 00:00:00 10,5 8,9 32 18 SW 1016,8 6
14.09.2019 23:00:00 11,7 8,4 36 19 SW 1018,0 16
14.09.2019 22:00:00 12,4 8,3 29 16 SW 1019,2 40
14.09.2019 21:00:00 13,0 7,9 29 16 SW 1020,9 45
14.09.2019 20:00:00 12,8 7,7 22 12 SW 1021,7 45
14.09.2019 19:00:00 12,7 8,6 25 14 SW 1022,5 35
14.09.2019 18:00:00 13,6 7,8 22 12 WSW 1023,4 29
14.09.2019 17:00:00 13,9 7,7 29 16 W 1024,5 45
14.09.2019 16:00:00 14,4 7,2 29 16 W 1025,6 45
14.09.2019 15:00:00 14,4 7,0 29 16 W 1026,0 45
14.09.2019 14:00:00 14,8 8,7 22 12 W 1026,5 35
14.09.2019 13:00:00 14,0 7,3 25 14 W 1027,1 50
14.09.2019 12:00:00 14,4 7,4 22 12 W 1027,1 45
14.09.2019 11:00:00 13,1 6,2 22 12 W 1027,4 30
14.09.2019 10:00:00 12,9 7,1 22 12 W 1027,3 35
14.09.2019 09:00:00 12,7 6,9 14 8 W 1027,2 35
14.09.2019 08:00:00 11,0 5,9 14 8 W 1027,1 30
14.09.2019 07:00:00 10,2 6,0 14 8 W 1027,1 40
14.09.2019 06:00:00 10,3 6,1 11 6 W 1026,9 35
14.09.2019 05:00:00 10,3 6,1 11 6 W 1027,0 29
14.09.2019 04:00:00 10,2 5,8 11 6 W 1026,9 40
14.09.2019 03:00:00 10,5 5,9 11 6 W 1026,9 45
14.09.2019 02:00:00 10,9 6,3 14 8 W 1026,3 35
14.09.2019 01:00:00 11,1 6,6 18 10 W 1026,2 30
14.09.2019 00:00:00 11,5 6,8 18 10 W 1026,1 35
13.09.2019 23:00:00 12,1 6,2 25 14 W 1025,8 45
13.09.2019 22:00:00 12,1 7,4 22 12 W 1025,4 29
13.09.2019 21:00:00 12,1 7,0 18 10 W 1025,2 35
13.09.2019 20:00:00 12,3 7,4 22 12 W 1024,7 35
13.09.2019 19:00:00 12,8 6,4 18 10 W 1024,4 45
13.09.2019 18:00:00 13,8 7,3 22 12 W 1024,0 45
13.09.2019 17:00:00 13,7 6,8 22 12 W 1023,7 40
13.09.2019 16:00:00 14,0 6,6 25 14 WNW 1023,5 35
13.09.2019 15:00:00 13,7 6,5 25 14 W 1023,3 30
13.09.2019 14:00:00 14,1 6,0 25 14 W 1022,7 40
13.09.2019 13:00:00 13,5 6,4 25 14 W 1021,8 35
13.09.2019 12:00:00 14,0 7,1 22 12 WNW 1021,1 35
13.09.2019 11:00:00 13,4 6,7 22 12 WNW 1020,1 45
13.09.2019 10:00:00 13,0 7,4 18 10 WNW 1019,3 50
13.09.2019 09:00:00 12,8 8,5 14 8 W 1018,3 28
13.09.2019 08:00:00 11,8 8,5 14 8 W 1017,7 45
13.09.2019 07:00:00 11,0 8,9 14 8 WSW 1017,1 35
13.09.2019 06:00:00 11,2 8,9 14 8 WSW 1016,5 45

tt = Température de l'air
td = dewpoint
ff = Vitesse du vent
dd = Direction du vent
ppp = reduced air pressure
vv = visibility

stations d'obs. à proximité